sat.trackr.live / text

‹ back to catalog

STARLINK-30519

NORAD 57985 · 2023-151X

PAYLOAD ACTIVE UNKNOWN

§ Identity

Operator
Country
US
Launch date
2023-09-30
Launch site
AFETR
Launch vehicle
Mass (kg)
RCS (m²)

Purposes: comms

External: N2YO · Heavens-Above · Gunter

§ Orbital elements

Epoch: 2026-05-24T19:34:16.076640Z

Period
94.27 min
Inclination
43.0024°
Eccentricity
0.0001556
Mean motion
15.27575091 rev/d
Perigee alt
482.0 km
Apogee alt
484.1 km
Semi-major
6,861.2 km
B*
-5.4335e-6
RAAN
280.9502°
Arg perigee
272.9579°
Mean anomaly
87.1094°
Rev number
14,717

§ Raw data

STARLINK-305191 57985U 23151X   26144.81546385 -.00000412  00000+0 -54335-5 0  99962 57985  43.0024 280.9502 0001556 272.9579  87.1094 15.27575091147174

JSON: /api/v1/satellites/57985 · /tle

For live sub-satellite position, see the globe view (requires WebGL).

§ Visibility from observer

Set your observer location to see the next 7 days of passes ≥ 10°. The values pass through the URL so the page stays shareable.

No JS? Fill the form by hand. The geolocation button needs JavaScript.